[Date Prev][Date Next][Thread Prev][Thread Next] - [Date Index][Thread Index][Author Index]

ISS Keps 8-22



ISS
1 25544U 98067A   01234.50798177  .00003017  00000-0  47749-4 0  3736
2 25544  51.6380 114.5294 0008236  25.8520  47.4702 15.57002803157437



----
Via the sarex mailing list at AMSAT.ORG courtesy of AMSAT-NA.
To unsubscribe, send "unsubscribe sarex" to Majordomo@amsat.org



AMSAT Top AMSAT Home